FW5316 Weather Reports


Display with metric or nautical units.
time (UTC)temp
F
wind
direction
speed
MPH
gust
MPH
rain 1hr
in
rain 24hr
in
rain mn
in
humidity
%
barometer
mb
20260903092016 65 0.0 0.0 0.00 0.00 0.00 82 1015.3
20260903091016 65 0.0 0.0 0.00 0.00 0.00 82 1015.4
20260903090036 65 0.0 0.0 0.00 0.00 0.00 82 1015.5
20260903085016 65 0.0 0.0 0.00 0.00 0.00 82 1015.5
20260903084016 65 0.0 0.0 0.00 0.00 0.00 82 1015.7
20260903083016 65 0.0 0.0 0.00 0.00 0.00 81 1015.8
20260903082037 65 0.0 0.0 0.00 0.00 0.00 81 1015.8
20260903081016 65 0.0 0.0 0.00 0.00 0.00 81 1015.9
20260903080016 65 0.0 0.0 0.00 0.00 0.00 81 1016.0
20260903075016 65 0.0 0.0 0.00 0.00 0.00 81 1015.9
20260903074056 66 0.0 0.0 0.00 0.00 0.00 81 1015.9
20260903073036 66 0.0 0.0 0.00 0.00 0.00 81 1015.8
20260903072016 66 0.0 0.0 0.00 0.00 0.00 81 1015.7
20260903071016 66 0.0 0.0 0.00 0.00 0.00 80 1015.8
20260903070016 66 0.0 0.0 0.00 0.00 0.00 80 1015.8
20260903065017 66 0.0 0.0 0.00 0.00 0.00 80 1015.9
20260903064017 66 0.0 0.0 0.00 0.00 0.00 80 1015.9
20260903063016 67 0.0 0.0 0.00 0.00 0.00 80 1015.9
20260903062017 67 0.0 0.0 0.00 0.00 0.00 79 1015.9
20260903061016 67 0.0 0.0 0.00 0.00 0.00 79 1015.9
20260903060016 67 0.0 0.0 0.00 0.00 0.00 79 1016.0
20260903055016 67 0.0 0.0 0.00 0.00 0.00 78 1016.1
20260903054037 67 0.0 0.0 0.00 0.00 0.00 78 1016.1
20260903053017 68 0.0 0.0 0.00 0.00 0.00 78 1016.1
20260903052016 68 0.0 0.0 0.00 0.00 0.00 78 1016.2
20260903051017 68 0.0 0.0 0.00 0.00 0.00 78 1016.2
20260903050016 68 0.0 0.0 0.00 0.00 0.00 78 1016.3
20260903045016 68 0.0 3.0 0.00 0.00 0.00 78 1016.2
20260903044036 68 313 1.0 3.0 0.00 0.00 0.00 77 1016.2
20260903043019 69 314 1.0 3.0 0.00 0.00 0.00 77 1016.1
20260903042016 69 315 1.0 3.0 0.00 0.00 0.00 76 1016.0
20260903041018 69 315 1.0 3.0 0.00 0.00 0.00 76 1016.0
20260903040016 69 318 2.0 4.0 0.00 0.00 0.00 76 1015.9
20260903035017 70 313 2.0 5.0 0.00 0.00 0.00 76 1015.8
20260903034017 70 319 2.0 5.0 0.00 0.00 0.00 76 1015.7
20260903033017 70 321 3.0 8.0 0.00 0.00 0.00 76 1015.6
20260903032016 70 314 2.0 7.0 0.00 0.00 0.00 75 1015.5
20260903031016 70 308 2.0 5.0 0.00 0.00 0.00 75 1015.4
20260903030016 71 289 2.0 6.0 0.00 0.00 0.00 75 1015.4
20260903025016 71 289 2.0 6.0 0.00 0.00 0.00 75 1015.3
20260903024016 71 282 4.0 8.0 0.00 0.00 0.00 74 1015.2
20260903023016 72 285 5.0 9.0 0.00 0.00 0.00 73 1015.2
20260903022017 72 288 6.0 10.0 0.00 0.00 0.00 72 1015.3
20260903021016 73 288 5.0 10.0 0.00 0.00 0.00 70 1015.3
20260903020016 73 286 3.0 9.0 0.00 0.00 0.00 68 1015.3
20260903015016 74 280 3.0 10.0 0.00 0.00 0.00 66 1015.1
20260903014016 75 278 5.0 9.0 0.00 0.00 0.00 64 1015.1
20260903013037 75 273 4.0 9.0 0.00 0.00 0.00 61 1015.0
20260903012016 76 295 2.0 7.0 0.00 0.00 0.00 57 1015.0
20260903011016 76 260 3.0 9.0 0.00 0.00 0.00 56 1014.9
20260903010016 77 290 2.0 9.0 0.00 0.00 0.00 56 1014.9
20260903005036 77 274 5.0 9.0 0.00 0.00 0.00 55 1014.9
20260903004056 77 240 2.0 9.0 0.00 0.00 0.00 56 1014.9
20260903003036 78 266 4.0 10.0 0.00 0.00 0.00 56 1014.9
20260903002016 78 299 5.0 11.0 0.00 0.00 0.00 56 1015.0
20260903001016 78 296 4.0 12.0 0.00 0.00 0.00 56 1015.0
20260903000016 79 292 5.0 9.0 0.00 0.00 0.00 56 1015.1
20260902235016 79 266 4.0 10.0 0.00 0.00 0.00 56 1015.1
20260902234016 80 282 4.0 11.0 0.00 0.00 0.00 56 1015.2
20260902233036 80 301 7.0 15.0 0.00 0.00 0.00 56 1015.2
20260902232016 81 296 4.0 11.0 0.00 0.00 0.00 55 1015.3
20260902231016 81 236 4.0 10.0 0.00 0.00 0.00 54 1015.4
20260902230036 82 241 3.0 9.0 0.00 0.00 0.00 53 1015.5
20260902225016 82 290 4.0 10.0 0.00 0.00 0.00 53 1015.5
20260902224016 82 290 5.0 12.0 0.00 0.00 0.00 54 1015.5
20260902223016 83 262 5.0 10.0 0.00 0.00 0.00 53 1015.6
20260902222016 83 266 7.0 12.0 0.00 0.00 0.00 54 1015.7
20260902221016 83 278 4.0 12.0 0.00 0.00 0.00 53 1015.8
20260902220016 84 243 6.0 14.0 0.00 0.00 0.00 51 1015.8
20260902215016 83 242 5.0 10.0 0.00 0.00 0.00 50 1015.8
20260902214016 84 207 5.0 12.0 0.00 0.00 0.00 51 1015.8
20260902213016 84 258 5.0 12.0 0.00 0.00 0.00 51 1015.8
20260902212016 84 239 4.0 11.0 0.00 0.00 0.00 51 1015.7
20260902211016 85 248 6.0 17.0 0.00 0.00 0.00 51 1015.8
20260902210016 85 245 5.0 11.0 0.00 0.00 0.00 50 1015.9
20260902205016 86 228 6.0 11.0 0.00 0.00 0.00 49 1015.9
20260902204016 86 256 6.0 12.0 0.00 0.00 0.00 50 1015.9
20260902203036 86 223 5.0 13.0 0.00 0.00 0.00 48 1015.9
20260902202016 87 258 5.0 11.0 0.00 0.00 0.00 48 1016.0
20260902201016 87 275 5.0 11.0 0.00 0.00 0.00 47 1016.0
20260902200015 87 234 5.0 11.0 0.00 0.00 0.00 49 1016.0
20260902195036 87 251 3.0 10.0 0.00 0.00 0.00 47 1016.1
20260902194056 88 246 3.0 9.0 0.00 0.00 0.00 47 1016.3
20260902193035 88 276 2.0 8.0 0.00 0.00 0.00 48 1016.4
20260902192015 87 290 4.0 8.0 0.00 0.00 0.00 50 1016.5
20260902191036 87 278 5.0 9.0 0.00 0.00 0.00 51 1016.7
20260902190016 86 265 5.0 11.0 0.00 0.00 0.00 52 1016.7
20260902185015 86 277 4.0 10.0 0.00 0.00 0.00 53 1016.8
20260902184015 85 267 4.0 10.0 0.00 0.00 0.00 54 1016.9
20260902183015 84 220 3.0 14.0 0.00 0.00 0.00 56 1017.0
20260902182035 84 201 5.0 13.0 0.00 0.00 0.00 56 1016.9
20260902181015 83 241 4.0 9.0 0.00 0.00 0.00 57 1016.9
20260902180015 82 251 2.0 12.0 0.00 0.00 0.00 59 1016.9
20260902175015 82 178 8.0 16.0 0.00 0.00 0.00 59 1016.9
20260902174015 81 211 4.0 12.0 0.00 0.00 0.00 61 1016.9
20260902173015 81 222 5.0 11.0 0.00 0.00 0.00 61 1016.9
20260902172016 81 197 5.0 11.0 0.00 0.00 0.00 60 1016.8
20260902171016 82 132 2.0 5.0 0.00 0.00 0.00 59 1016.8
20260902170015 82 116 2.0 5.0 0.00 0.00 0.00 59 1016.8
20260902165035 82 257 1.0 6.0 0.00 0.00 0.00 59 1016.8
20260902164016 80 360 2.0 5.0 0.00 0.00 0.00 62 1016.8
20260902163015 78 307 0.0 4.0 0.00 0.00 0.00 64 1016.8
20260902162015 77 315 1.0 3.0 0.00 0.00 0.00 67 1016.9
20260902161015 76 41 2.0 5.0 0.00 0.00 0.00 67 1016.9
20260902160017 76 70 2.0 5.0 0.00 0.00 0.00 67 1016.9
20260902155016 76 39 1.0 4.0 0.00 0.00 0.00 68 1016.9
20260902154035 76 318 1.0 4.0 0.00 0.00 0.00 70 1016.8
20260902153015 75 343 1.0 5.0 0.00 0.00 0.00 70 1016.8
20260902152015 73 21 1.0 4.0 0.00 0.00 0.00 74 1016.8
20260902151015 72 80 2.0 5.0 0.00 0.00 0.00 75 1016.7
20260902150015 71 82 2.0 4.0 0.00 0.00 0.00 78 1016.8
20260902145015 70 81 2.0 4.0 0.00 0.00 0.00 79 1016.7
20260902144015 69 68 3.0 5.0 0.00 0.00 0.00 80 1016.8
20260902143015 68 0.0 2.0 0.00 0.00 0.00 82 1016.8
20260902142015 67 11 1.0 4.0 0.00 0.00 0.00 83 1016.7
20260902141016 66 0.0 0.0 0.00 0.00 0.00 85 1016.7
20260902140015 65 0.0 0.0 0.00 0.00 0.00 86 1016.6
20260902135015 64 0.0 0.0 0.00 0.00 0.00 86 1016.5
20260902134015 64 0.0 0.0 0.00 0.00 0.00 86 1016.3
20260902133015 64 0.0 0.0 0.00 0.00 0.00 85 1016.2
20260902132035 64 0.0 0.0 0.00 0.00 0.00 85 1016.1
20260902131015 64 0.0 0.0 0.00 0.00 0.00 86 1016.0
20260902130016 64 0.0 0.0 0.00 0.00 0.00 86 1015.9
20260902125015 64 0.0 0.0 0.00 0.00 0.00 86 1015.9
20260902124015 64 0.0 0.0 0.00 0.00 0.00 85 1015.9
20260902123015 64 0.0 0.0 0.00 0.00 0.00 85 1015.9
20260902122017 64 0.0 0.0 0.00 0.00 0.00 84 1016.0
20260902121017 65 0.0 0.0 0.00 0.00 0.00 85 1016.0
20260902120037 65 0.0 0.0 0.00 0.00 0.00 85 1015.9
20260902115017 65 0.0 0.0 0.00 0.00 0.00 84 1016.1
20260902114037 65 0.0 0.0 0.00 0.00 0.00 84 1016.1
20260902113017 65 0.0 0.0 0.00 0.00 0.00 84 1016.1
20260902112016 65 0.0 0.0 0.00 0.00 0.00 84 1016.0
20260902111017 65 0.0 0.0 0.00 0.00 0.00 84 1016.0
20260902110016 65 0.0 0.0 0.00 0.00 0.00 84 1016.0
20260902105017 65 0.0 0.0 0.00 0.00 0.00 83 1016.1
20260902104017 65 0.0 0.0 0.00 0.00 0.00 83 1016.2
20260902103017 65 0.0 0.0 0.00 0.00 0.00 83 1016.3
20260902102016 65 0.0 0.0 0.00 0.00 0.00 83 1016.4
20260902101017 65 0.0 0.0 0.00 0.00 0.00 83 1016.5
20260902100016 66 0.0 0.0 0.00 0.00 0.00 83 1016.5
20260902095017 66 0.0 0.0 0.00 0.00 0.00 83 1016.5
20260902094016 66 0.0 0.0 0.00 0.00 0.00 82 1016.5
20260902093016 66 0.0 0.0 0.00 0.00 0.00 82 1016.4